Time,TemperatureF,DewpointF,PressureIn,WindDirection,WindDirectionDegrees,WindSpeedMPH,WindSpeedGustMPH,Humidity,HourlyPrecipIn,Conditions,Clouds,dailyrainin,SoftwareType,DateUTC
2013-10-09 00:05:00,54.1,47.0,30.21,West,265,0.0,3.0,77,0.00,,,0.00,Wunderground v.1.13,2013-10-09 04:05:00,
2013-10-09 00:10:00,54.1,47.4,30.21,West,265,0.0,3.0,78,0.00,,,0.00,Wunderground v.1.13,2013-10-09 04:10:00,
2013-10-09 00:15:00,53.9,47.2,30.21,West,265,0.0,3.0,78,0.00,,,0.00,Wunderground v.1.13,2013-10-09 04:15:00,
2013-10-09 00:20:00,53.9,46.9,30.21,West,265,0.0,3.0,77,0.00,,,0.00,Wunderground v.1.13,2013-10-09 04:20:00,
2013-10-09 00:25:00,53.8,47.1,30.21,West,265,0.0,3.0,78,0.00,,,0.00,Wunderground v.1.13,2013-10-09 04:25:00,
2013-10-09 00:30:00,53.6,47.2,30.21,West,265,0.0,3.0,79,0.00,,,0.00,Wunderground v.1.13,2013-10-09 04:30:00,
2013-10-09 00:35:00,53.5,47.1,30.20,West,265,0.0,3.0,79,0.00,,,0.00,Wunderground v.1.13,2013-10-09 04:35:00,
2013-10-09 00:40:00,53.5,47.5,30.20,West,265,0.0,3.0,80,0.00,,,0.00,Wunderground v.1.13,2013-10-09 04:40:00,
2013-10-09 00:45:00,53.3,47.3,30.20,West,265,0.0,3.0,80,0.00,,,0.00,Wunderground v.1.13,2013-10-09 04:45:00,
2013-10-09 00:50:00,53.2,47.5,30.20,West,265,0.0,3.0,81,0.00,,,0.00,Wunderground v.1.13,2013-10-09 04:50:00,
2013-10-09 00:55:00,53.1,47.4,30.20,West,265,0.0,3.0,81,0.00,,,0.00,Wunderground v.1.13,2013-10-09 04:55:00,
2013-10-09 01:00:00,52.9,47.2,30.20,West,265,0.0,3.0,81,0.00,,,0.00,Wunderground v.1.13,2013-10-09 05:00:00,
2013-10-09 01:10:00,52.8,47.5,30.20,West,265,0.0,3.0,82,0.00,,,0.00,Wunderground v.1.13,2013-10-09 05:10:00,
2013-10-09 01:15:00,52.6,47.3,30.20,West,265,0.0,3.0,82,0.00,,,0.00,Wunderground v.1.13,2013-10-09 05:15:00,
2013-10-09 01:20:00,52.5,47.2,30.20,West,265,0.0,3.0,82,0.00,,,0.00,Wunderground v.1.13,2013-10-09 05:20:00,
2013-10-09 01:25:00,52.5,47.5,30.20,West,265,0.0,3.0,83,0.00,,,0.00,Wunderground v.1.13,2013-10-09 05:25:00,
2013-10-09 01:30:00,52.3,47.3,30.20,West,265,0.0,3.0,83,0.00,,,0.00,Wunderground v.1.13,2013-10-09 05:30:00,
2013-10-09 01:40:00,52.2,47.2,30.20,West,265,0.0,3.0,83,0.00,,,0.00,Wunderground v.1.13,2013-10-09 05:40:00,
2013-10-09 01:45:00,52.2,47.2,30.20,West,265,0.0,3.0,83,0.00,,,0.00,Wunderground v.1.13,2013-10-09 05:45:00,
2013-10-09 01:50:00,52.0,47.0,30.20,West,265,0.0,3.0,83,0.00,,,0.00,Wunderground v.1.13,2013-10-09 05:50:00,
2013-10-09 01:55:00,52.0,47.3,30.20,West,265,0.0,3.0,84,0.00,,,0.00,Wunderground v.1.13,2013-10-09 05:55:00,
2013-10-09 02:00:00,51.9,47.2,30.20,West,265,0.0,3.0,84,0.00,,,0.00,Wunderground v.1.13,2013-10-09 06:00:00,
2013-10-09 02:05:00,51.7,47.0,30.20,West,265,0.0,3.0,84,0.00,,,0.00,Wunderground v.1.13,2013-10-09 06:05:00,
2013-10-09 02:15:00,51.6,46.9,30.20,West,265,0.0,3.0,84,0.00,,,0.00,Wunderground v.1.13,2013-10-09 06:15:00,
2013-10-09 02:20:00,51.4,46.7,30.20,West,265,0.0,3.0,84,0.00,,,0.00,Wunderground v.1.13,2013-10-09 06:20:00,
2013-10-09 02:25:00,51.3,46.6,30.20,West,265,0.0,3.0,84,0.00,,,0.00,Wunderground v.1.13,2013-10-09 06:25:00,
2013-10-09 02:30:00,51.3,46.6,30.20,West,265,0.0,3.0,84,0.00,,,0.00,Wunderground v.1.13,2013-10-09 06:30:00,
2013-10-09 02:35:00,51.3,46.6,30.20,West,265,0.0,3.0,84,0.00,,,0.00,Wunderground v.1.13,2013-10-09 06:35:00,
2013-10-09 02:40:00,51.1,46.7,30.20,West,265,0.0,3.0,85,0.00,,,0.00,Wunderground v.1.13,2013-10-09 06:40:00,
2013-10-09 02:45:00,51.0,46.6,30.20,West,265,0.0,3.0,85,0.00,,,0.00,Wunderground v.1.13,2013-10-09 06:45:00,
2013-10-09 02:50:00,51.0,46.6,30.19,West,265,0.0,3.0,85,0.00,,,0.00,Wunderground v.1.13,2013-10-09 06:50:00,
2013-10-09 02:55:00,50.8,46.5,30.19,West,265,0.0,3.0,85,0.00,,,0.00,Wunderground v.1.13,2013-10-09 06:55:00,
2013-10-09 03:00:00,50.7,46.4,30.19,West,265,0.0,3.0,85,0.00,,,0.00,Wunderground v.1.13,2013-10-09 07:00:00,
2013-10-09 03:05:00,50.5,46.2,30.19,West,265,0.0,3.0,85,0.00,,,0.00,Wunderground v.1.13,2013-10-09 07:05:00,
2013-10-09 03:15:00,50.5,46.5,30.19,West,265,0.0,3.0,86,0.00,,,0.00,Wunderground v.1.13,2013-10-09 07:15:00,
2013-10-09 03:20:00,50.4,46.4,30.18,West,265,0.0,3.0,86,0.00,,,0.00,Wunderground v.1.13,2013-10-09 07:20:00,
2013-10-09 03:25:00,50.4,46.4,30.18,SW,224,0.0,3.0,86,0.00,,,0.00,Wunderground v.1.13,2013-10-09 07:25:00,
2013-10-09 03:30:00,50.2,46.2,30.18,West,265,0.0,3.0,86,0.00,,,0.00,Wunderground v.1.13,2013-10-09 07:30:00,
2013-10-09 03:35:00,50.1,46.1,30.18,West,265,0.0,3.0,86,0.00,,,0.00,Wunderground v.1.13,2013-10-09 07:35:00,
2013-10-09 03:40:00,50.1,46.4,30.18,West,265,0.0,3.0,87,0.00,,,0.00,Wunderground v.1.13,2013-10-09 07:40:00,
2013-10-09 03:45:00,50.1,46.4,30.18,West,265,0.0,3.0,87,0.00,,,0.00,Wunderground v.1.13,2013-10-09 07:45:00,
2013-10-09 03:50:00,50.2,46.5,30.18,West,265,0.0,3.0,87,0.00,,,0.00,Wunderground v.1.13,2013-10-09 07:50:00,
2013-10-09 03:55:00,50.2,46.5,30.18,West,265,0.0,3.0,87,0.00,,,0.00,Wunderground v.1.13,2013-10-09 07:55:00,
2013-10-09 04:00:00,50.2,46.5,30.18,West,265,0.0,3.0,87,0.00,,,0.00,Wunderground v.1.13,2013-10-09 08:00:00,
2013-10-09 04:05:00,50.2,46.2,30.17,West,265,0.0,3.0,86,0.00,,,0.00,Wunderground v.1.13,2013-10-09 08:05:00,
2013-10-09 04:10:00,50.2,46.2,30.17,West,265,0.0,3.0,86,0.00,,,0.00,Wunderground v.1.13,2013-10-09 08:10:00,
2013-10-09 04:20:00,50.4,46.4,30.18,West,265,0.0,3.0,86,0.00,,,0.00,Wunderground v.1.13,2013-10-09 08:20:00,
2013-10-09 04:25:00,50.4,46.4,30.18,West,265,0.0,3.0,86,0.00,,,0.00,Wunderground v.1.13,2013-10-09 08:25:00,
2013-10-09 04:30:00,50.5,46.2,30.18,West,265,0.0,3.0,85,0.00,,,0.00,Wunderground v.1.13,2013-10-09 08:30:00,
2013-10-09 04:35:00,50.7,46.4,30.17,West,265,0.0,3.0,85,0.00,,,0.00,Wunderground v.1.13,2013-10-09 08:35:00,
2013-10-09 04:40:00,51.0,46.3,30.17,West,265,1.0,3.0,84,0.00,,,0.00,Wunderground v.1.13,2013-10-09 08:40:00,
2013-10-09 04:45:00,51.1,46.1,30.17,West,265,1.0,1.0,83,0.00,,,0.00,Wunderground v.1.13,2013-10-09 08:45:00,
2013-10-09 04:55:00,51.3,46.0,30.17,West,265,1.0,1.0,82,0.00,,,0.00,Wunderground v.1.13,2013-10-09 08:55:00,
2013-10-09 05:00:00,51.3,45.7,30.17,West,265,0.0,3.0,81,0.00,,,0.00,Wunderground v.1.13,2013-10-09 09:00:00,
2013-10-09 05:05:00,51.4,45.1,30.17,West,265,0.0,3.0,79,0.00,,,0.00,Wunderground v.1.13,2013-10-09 09:05:00,
2013-10-09 05:10:00,51.4,45.1,30.17,West,265,1.0,1.0,79,0.00,,,0.00,Wunderground v.1.13,2013-10-09 09:10:00,
2013-10-09 05:15:00,51.6,45.0,30.17,West,265,1.0,1.0,78,0.00,,,0.00,Wunderground v.1.13,2013-10-09 09:15:00,
2013-10-09 05:25:00,51.6,45.0,30.17,West,265,0.0,3.0,78,0.00,,,0.00,Wunderground v.1.13,2013-10-09 09:25:00,
2013-10-09 05:30:00,51.6,44.6,30.17,West,265,0.0,3.0,77,0.00,,,0.00,Wunderground v.1.13,2013-10-09 09:30:00,
2013-10-09 05:35:00,51.4,44.4,30.17,West,265,0.0,3.0,77,0.00,,,0.00,Wunderground v.1.13,2013-10-09 09:35:00,
2013-10-09 05:40:00,51.3,44.7,30.17,West,265,0.0,3.0,78,0.00,,,0.00,Wunderground v.1.13,2013-10-09 09:40:00,
2013-10-09 05:45:00,51.3,44.7,30.17,West,265,0.0,3.0,78,0.00,,,0.00,Wunderground v.1.13,2013-10-09 09:45:00,
2013-10-09 05:50:00,51.1,44.5,30.18,West,265,0.0,3.0,78,0.00,,,0.00,Wunderground v.1.13,2013-10-09 09:50:00,
2013-10-09 06:00:00,51.0,44.7,30.18,West,265,0.0,3.0,79,0.00,,,0.00,Wunderground v.1.13,2013-10-09 10:00:00,
2013-10-09 06:05:00,51.0,44.7,30.18,West,265,0.0,3.0,79,0.00,,,0.00,Wunderground v.1.13,2013-10-09 10:05:00,
2013-10-09 06:10:00,51.0,44.7,30.18,West,265,0.0,3.0,79,0.00,,,0.00,Wunderground v.1.13,2013-10-09 10:10:00,
2013-10-09 06:15:00,51.0,44.7,30.18,West,265,0.0,3.0,79,0.00,,,0.00,Wunderground v.1.13,2013-10-09 10:15:00,
2013-10-09 06:20:00,51.0,44.4,30.19,SW,224,0.0,3.0,78,0.00,,,0.00,Wunderground v.1.13,2013-10-09 10:20:00,
2013-10-09 06:25:00,50.8,44.2,30.19,West,265,0.0,3.0,78,0.00,,,0.00,Wunderground v.1.13,2013-10-09 10:25:00,
2013-10-09 06:30:00,50.8,44.2,30.19,West,265,0.0,3.0,78,0.00,,,0.00,Wunderground v.1.13,2013-10-09 10:30:00,
2013-10-09 06:35:00,51.0,44.4,30.19,West,265,0.0,3.0,78,0.00,,,0.00,Wunderground v.1.13,2013-10-09 10:35:00,
2013-10-09 06:40:00,51.0,44.4,30.19,West,265,0.0,3.0,78,0.00,,,0.00,Wunderground v.1.13,2013-10-09 10:40:00,
2013-10-09 06:45:00,50.8,44.2,30.19,West,265,0.0,3.0,78,0.00,,,0.00,Wunderground v.1.13,2013-10-09 10:45:00,
2013-10-09 06:50:00,50.8,44.2,30.19,West,265,0.0,3.0,78,0.00,,,0.00,Wunderground v.1.13,2013-10-09 10:50:00,
2013-10-09 07:00:00,50.8,44.2,30.19,West,265,0.0,3.0,78,0.00,,,0.00,Wunderground v.1.13,2013-10-09 11:00:00,
2013-10-09 07:05:00,50.8,44.2,30.19,West,265,0.0,3.0,78,0.00,,,0.00,Wunderground v.1.13,2013-10-09 11:05:00,
2013-10-09 07:10:00,50.8,44.2,30.19,West,265,0.0,3.0,78,0.00,,,0.00,Wunderground v.1.13,2013-10-09 11:10:00,
2013-10-09 07:15:00,50.7,44.1,30.19,West,265,0.0,3.0,78,0.00,,,0.00,Wunderground v.1.13,2013-10-09 11:15:00,
2013-10-09 07:20:00,50.7,44.1,30.20,West,265,0.0,3.0,78,0.00,,,0.00,Wunderground v.1.13,2013-10-09 11:20:00,
2013-10-09 07:25:00,50.5,44.2,30.20,West,265,0.0,3.0,79,0.00,,,0.00,Wunderground v.1.13,2013-10-09 11:25:00,
2013-10-09 07:35:00,50.4,44.1,30.20,West,265,0.0,3.0,79,0.00,,,0.00,Wunderground v.1.13,2013-10-09 11:35:00,
2013-10-09 07:40:00,50.4,44.1,30.20,West,265,1.0,3.0,79,0.00,,,0.00,Wunderground v.1.13,2013-10-09 11:40:00,
2013-10-09 07:45:00,50.4,44.1,30.20,WNW,285,1.0,1.0,79,0.00,,,0.00,Wunderground v.1.13,2013-10-09 11:45:00,
2013-10-09 07:50:00,50.4,44.1,30.21,WNW,289,2.0,2.0,79,0.00,,,0.00,Wunderground v.1.13,2013-10-09 11:50:00,
2013-10-09 07:55:00,50.4,44.1,30.21,WNW,292,2.0,3.0,79,0.00,,,0.00,Wunderground v.1.13,2013-10-09 11:55:00,
2013-10-09 08:05:00,50.4,44.1,30.21,WNW,292,1.0,1.0,79,0.00,,,0.00,Wunderground v.1.13,2013-10-09 12:05:00,
2013-10-09 08:10:00,50.4,44.1,30.21,WNW,292,0.0,3.0,79,0.00,,,0.00,Wunderground v.1.13,2013-10-09 12:10:00,
2013-10-09 08:15:00,50.4,44.1,30.21,WNW,292,0.0,3.0,79,0.00,,,0.00,Wunderground v.1.13,2013-10-09 12:15:00,
2013-10-09 08:20:00,50.4,44.5,30.22,WNW,292,0.0,3.0,80,0.00,,,0.00,Wunderground v.1.13,2013-10-09 12:20:00,
2013-10-09 08:25:00,50.5,44.6,30.22,WNW,292,0.0,3.0,80,0.00,,,0.00,Wunderground v.1.13,2013-10-09 12:25:00,
2013-10-09 08:30:00,50.8,44.9,30.22,WNW,292,0.0,3.0,80,0.00,,,0.00,Wunderground v.1.13,2013-10-09 12:30:00,
2013-10-09 08:40:00,51.4,45.1,30.22,WNW,292,0.0,3.0,79,0.00,,,0.00,Wunderground v.1.13,2013-10-09 12:40:00,
2013-10-09 08:45:00,51.7,45.1,30.22,WNW,292,0.0,3.0,78,0.00,,,0.00,Wunderground v.1.13,2013-10-09 12:45:00,
2013-10-09 08:50:00,52.2,45.2,30.23,WNW,292,0.0,3.0,77,0.00,,,0.00,Wunderground v.1.13,2013-10-09 12:50:00,
2013-10-09 08:55:00,52.5,44.8,30.23,WNW,292,0.0,3.0,75,0.00,,,0.00,Wunderground v.1.13,2013-10-09 12:55:00,
2013-10-09 09:00:00,52.9,44.8,30.23,WNW,292,1.0,1.0,74,0.00,,,0.00,Wunderground v.1.13,2013-10-09 13:00:00,
2013-10-09 09:15:00,53.9,44.7,30.23,WNW,298,1.0,1.0,71,0.00,,,0.00,Wunderground v.1.13,2013-10-09 13:15:00,
2013-10-09 09:20:00,54.2,45.0,30.23,WNW,298,1.0,1.0,71,0.00,,,0.00,Wunderground v.1.13,2013-10-09 13:20:00,
2013-10-09 09:25:00,54.5,44.9,30.23,SW,227,0.0,3.0,70,0.00,,,0.00,Wunderground v.1.13,2013-10-09 13:25:00,
2013-10-09 09:30:00,54.7,45.1,30.23,SW,227,0.0,3.0,70,0.00,,,0.00,Wunderground v.1.13,2013-10-09 13:30:00,
2013-10-09 09:35:00,55.1,45.5,30.23,SW,227,0.0,3.0,70,0.00,,,0.00,Wunderground v.1.13,2013-10-09 13:35:00,
2013-10-09 09:40:00,55.4,45.4,30.23,SW,227,0.0,3.0,69,0.00,,,0.00,Wunderground v.1.13,2013-10-09 13:40:00,
2013-10-09 09:45:00,55.9,45.9,30.23,SW,227,0.0,3.0,69,0.00,,,0.00,Wunderground v.1.13,2013-10-09 13:45:00,
2013-10-09 09:50:00,56.2,46.2,30.23,SW,227,0.0,3.0,69,0.00,,,0.00,Wunderground v.1.13,2013-10-09 13:50:00,
2013-10-09 09:55:00,56.6,46.2,30.23,WSW,237,0.0,3.0,68,0.00,,,0.00,Wunderground v.1.13,2013-10-09 13:55:00,
2013-10-09 10:00:00,57.0,46.5,30.23,WSW,237,0.0,3.0,68,0.00,,,0.00,Wunderground v.1.13,2013-10-09 14:00:00,
2013-10-09 10:05:00,57.5,47.0,30.23,WSW,237,0.0,3.0,68,0.00,,,0.00,Wunderground v.1.13,2013-10-09 14:05:00,
2013-10-09 10:15:00,58.1,46.8,30.23,WSW,237,0.0,3.0,66,0.00,,,0.00,Wunderground v.1.13,2013-10-09 14:15:00,
2013-10-09 10:20:00,58.4,46.7,30.23,SSW,210,0.0,3.0,65,0.00,,,0.00,Wunderground v.1.13,2013-10-09 14:20:00,
2013-10-09 10:25:00,58.6,46.5,30.23,SW,216,0.0,3.0,64,0.00,,,0.00,Wunderground v.1.13,2013-10-09 14:25:00,
2013-10-09 10:30:00,59.0,46.8,30.23,SSW,209,0.0,3.0,64,0.00,,,0.00,Wunderground v.1.13,2013-10-09 14:30:00,
2013-10-09 10:40:00,59.8,46.7,30.23,SSW,209,0.0,3.0,62,0.00,,,0.00,Wunderground v.1.13,2013-10-09 14:40:00,
2013-10-09 10:45:00,60.2,46.7,30.23,SSW,209,0.0,3.0,61,0.00,,,0.00,Wunderground v.1.13,2013-10-09 14:45:00,
2013-10-09 10:50:00,60.7,46.7,30.23,SSW,209,0.0,3.0,60,0.00,,,0.00,Wunderground v.1.13,2013-10-09 14:50:00,
2013-10-09 10:55:00,61.2,46.8,30.23,SSW,210,0.0,3.0,59,0.00,,,0.00,Wunderground v.1.13,2013-10-09 14:55:00,
2013-10-09 11:00:00,61.6,47.1,30.23,SSW,210,0.0,3.0,59,0.00,,,0.00,Wunderground v.1.13,2013-10-09 15:00:00,
2013-10-09 11:05:00,62.1,47.1,30.23,SSW,210,0.0,3.0,58,0.00,,,0.00,Wunderground v.1.13,2013-10-09 15:05:00,
2013-10-09 11:10:00,62.4,47.0,30.23,West,260,0.0,3.0,57,0.00,,,0.00,Wunderground v.1.13,2013-10-09 15:10:00,
2013-10-09 11:20:00,63.2,47.7,30.23,West,260,0.0,3.0,57,0.00,,,0.00,Wunderground v.1.13,2013-10-09 15:20:00,
2013-10-09 11:25:00,63.5,47.5,30.23,SSW,213,0.0,3.0,56,0.00,,,0.00,Wunderground v.1.13,2013-10-09 15:25:00,
2013-10-09 11:30:00,64.0,48.0,30.23,SW,215,0.0,3.0,56,0.00,,,0.00,Wunderground v.1.13,2013-10-09 15:30:00,
2013-10-09 11:35:00,64.5,48.0,30.23,WSW,240,0.0,3.0,55,0.00,,,0.00,Wunderground v.1.13,2013-10-09 15:35:00,
2013-10-09 11:40:00,64.8,47.8,30.23,SW,224,0.0,3.0,54,0.00,,,0.00,Wunderground v.1.13,2013-10-09 15:40:00,
2013-10-09 11:45:00,65.3,47.7,30.23,SW,232,0.0,3.0,53,0.00,,,0.00,Wunderground v.1.13,2013-10-09 15:45:00,
2013-10-09 11:55:00,66.1,48.0,30.23,WSW,256,0.0,3.0,52,0.00,,,0.00,Wunderground v.1.13,2013-10-09 15:55:00,
2013-10-09 12:00:00,66.6,47.9,30.23,WSW,237,0.0,3.0,51,0.00,,,0.00,Wunderground v.1.13,2013-10-09 16:00:00,
2013-10-09 12:05:00,67.3,48.0,30.23,SW,232,0.0,3.0,50,0.00,,,0.00,Wunderground v.1.13,2013-10-09 16:05:00,
2013-10-09 12:10:00,67.9,48.0,30.23,SW,234,1.0,1.0,49,0.00,,,0.00,Wunderground v.1.13,2013-10-09 16:10:00,
2013-10-09 12:15:00,68.4,49.0,30.23,SW,223,1.0,1.0,50,0.00,,,0.00,Wunderground v.1.13,2013-10-09 16:15:00,
2013-10-09 12:25:00,69.6,48.5,30.22,WSW,240,0.0,3.0,47,0.00,,,0.00,Wunderground v.1.13,2013-10-09 16:25:00,
2013-10-09 12:30:00,69.8,48.1,30.22,SSW,195,0.0,3.0,46,0.00,,,0.00,Wunderground v.1.13,2013-10-09 16:30:00,
2013-10-09 12:35:00,70.1,48.4,30.22,SW,229,0.0,3.0,46,0.00,,,0.00,Wunderground v.1.13,2013-10-09 16:35:00,
2013-10-09 12:40:00,70.8,48.4,30.22,SW,236,0.0,3.0,45,0.00,,,0.00,Wunderground v.1.13,2013-10-09 16:40:00,
2013-10-09 12:45:00,71.3,49.4,30.22,SW,234,0.0,3.0,46,0.00,,,0.00,Wunderground v.1.13,2013-10-09 16:45:00,
2013-10-09 12:50:00,71.8,48.1,30.21,SW,233,0.0,3.0,43,0.00,,,0.00,Wunderground v.1.13,2013-10-09 16:50:00,
2013-10-09 13:00:00,72.8,49.6,30.21,SW,217,0.0,3.0,44,0.00,,,0.00,Wunderground v.1.13,2013-10-09 17:00:00,
2013-10-09 13:05:00,73.2,48.7,30.20,WSW,257,0.0,3.0,42,0.00,,,0.00,Wunderground v.1.13,2013-10-09 17:05:00,
2013-10-09 13:10:00,73.3,48.2,30.20,West,272,0.0,3.0,41,0.00,,,0.00,Wunderground v.1.13,2013-10-09 17:10:00,
2013-10-09 13:15:00,73.5,48.4,30.20,WNW,302,0.0,3.0,41,0.00,,,0.00,Wunderground v.1.13,2013-10-09 17:15:00,
2013-10-09 13:20:00,73.3,46.2,30.20,NW,312,1.0,4.0,38,0.00,,,0.00,Wunderground v.1.13,2013-10-09 17:20:00,
2013-10-09 13:30:00,73.2,48.1,30.20,SW,229,1.0,1.0,41,0.00,,,0.00,Wunderground v.1.13,2013-10-09 17:30:00,
2013-10-09 13:35:00,73.9,48.1,30.19,SW,222,0.0,3.0,40,0.00,,,0.00,Wunderground v.1.13,2013-10-09 17:35:00,
2013-10-09 13:40:00,73.9,46.7,30.19,South,191,1.0,1.0,38,0.00,,,0.00,Wunderground v.1.13,2013-10-09 17:40:00,
2013-10-09 13:45:00,74.0,48.1,30.19,SW,229,1.0,1.0,40,0.00,,,0.00,Wunderground v.1.13,2013-10-09 17:45:00,
2013-10-09 13:50:00,74.4,47.1,30.18,SW,216,0.0,3.0,38,0.00,,,0.00,Wunderground v.1.13,2013-10-09 17:50:00,
2013-10-09 13:55:00,74.7,48.1,30.18,South,171,0.0,3.0,39,0.00,,,0.00,Wunderground v.1.13,2013-10-09 17:55:00,
2013-10-09 14:05:00,74.9,43.0,30.18,NNW,330,1.0,13.0,32,0.00,,,0.00,Wunderground v.1.13,2013-10-09 18:05:00,
2013-10-09 14:10:00,75.1,44.0,30.18,North,0,2.0,2.0,33,0.00,,,0.00,Wunderground v.1.13,2013-10-09 18:10:00,
2013-10-09 14:15:00,76.0,42.3,30.18,ENE,68,1.0,3.0,30,0.00,,,0.00,Wunderground v.1.13,2013-10-09 18:15:00,
2013-10-09 14:20:00,76.5,42.7,30.16,North,1,1.0,1.0,30,0.00,,,0.00,Wunderground v.1.13,2013-10-09 18:20:00,
2013-10-09 14:25:00,77.0,43.2,30.16,North,357,1.0,1.0,30,0.00,,,0.00,Wunderground v.1.13,2013-10-09 18:25:00,
2013-10-09 14:35:00,76.8,42.1,30.16,NW,315,2.0,7.0,29,0.00,,,0.00,Wunderground v.1.13,2013-10-09 18:35:00,
2013-10-09 14:40:00,76.3,40.8,30.16,North,349,2.0,3.0,28,0.00,,,0.00,Wunderground v.1.13,2013-10-09 18:40:00,
2013-10-09 14:45:00,76.1,41.5,30.16,NW,315,2.0,2.0,29,0.00,,,0.00,Wunderground v.1.13,2013-10-09 18:45:00,
2013-10-09 14:50:00,76.0,41.4,30.15,WSW,254,1.0,1.0,29,0.00,,,0.00,Wunderground v.1.13,2013-10-09 18:50:00,
2013-10-09 14:55:00,75.8,41.3,30.15,West,264,1.0,1.0,29,0.00,,,0.00,Wunderground v.1.13,2013-10-09 18:55:00,
2013-10-09 15:00:00,76.1,40.6,30.15,NNE,30,0.0,3.0,28,0.00,,,0.00,Wunderground v.1.13,2013-10-09 19:00:00,
2013-10-09 15:10:00,76.1,39.7,30.15,NW,326,2.0,2.0,27,0.00,,,0.00,Wunderground v.1.13,2013-10-09 19:10:00,
2013-10-09 15:15:00,76.5,40.0,30.15,East,93,1.0,3.0,27,0.00,,,0.00,Wunderground v.1.13,2013-10-09 19:15:00,
2013-10-09 15:20:00,76.7,41.1,30.15,West,271,0.0,3.0,28,0.00,,,0.00,Wunderground v.1.13,2013-10-09 19:20:00,
2013-10-09 15:25:00,77.0,41.4,30.15,West,264,1.0,3.0,28,0.00,,,0.00,Wunderground v.1.13,2013-10-09 19:25:00,
2013-10-09 15:30:00,77.0,41.4,30.15,WSW,254,1.0,1.0,28,0.00,,,0.00,Wunderground v.1.13,2013-10-09 19:30:00,
2013-10-09 15:40:00,77.2,40.6,30.14,NNW,342,0.0,3.0,27,0.00,,,0.00,Wunderground v.1.13,2013-10-09 19:40:00,
2013-10-09 15:45:00,76.7,40.2,30.14,NNW,333,2.0,3.0,27,0.00,,,0.00,Wunderground v.1.13,2013-10-09 19:45:00,
2013-10-09 15:50:00,77.0,39.5,30.14,NNW,329,2.0,2.0,26,0.00,,,0.00,Wunderground v.1.13,2013-10-09 19:50:00,
2013-10-09 15:55:00,77.6,40.0,30.14,North,356,1.0,3.0,26,0.00,,,0.00,Wunderground v.1.13,2013-10-09 19:55:00,
2013-10-09 16:00:00,78.1,40.4,30.14,North,359,0.0,3.0,26,0.00,,,0.00,Wunderground v.1.13,2013-10-09 20:00:00,
2013-10-09 16:05:00,78.1,40.4,30.13,NNW,329,1.0,1.0,26,0.00,,,0.00,Wunderground v.1.13,2013-10-09 20:05:00,
2013-10-09 16:15:00,77.7,41.0,30.13,WNW,282,0.0,3.0,27,0.00,,,0.00,Wunderground v.1.13,2013-10-09 20:15:00,
2013-10-09 16:20:00,77.4,39.8,30.13,NNW,332,1.0,1.0,26,0.00,,,0.00,Wunderground v.1.13,2013-10-09 20:20:00,
2013-10-09 16:25:00,77.4,39.8,30.13,NNW,328,1.0,1.0,26,0.00,,,0.00,Wunderground v.1.13,2013-10-09 20:25:00,
2013-10-09 16:30:00,77.2,39.6,30.13,NW,309,1.0,3.0,26,0.00,,,0.00,Wunderground v.1.13,2013-10-09 20:30:00,
2013-10-09 16:35:00,76.8,40.3,30.13,SSW,198,1.0,1.0,27,0.00,,,0.00,Wunderground v.1.13,2013-10-09 20:35:00,
2013-10-09 16:45:00,77.7,41.0,30.13,SSW,202,1.0,1.0,27,0.00,,,0.00,Wunderground v.1.13,2013-10-09 20:45:00,
2013-10-09 16:50:00,77.9,38.2,30.13,WSW,241,0.0,3.0,24,0.00,,,0.00,Wunderground v.1.13,2013-10-09 20:50:00,
2013-10-09 16:55:00,77.9,39.2,30.13,South,179,0.0,3.0,25,0.00,,,0.00,Wunderground v.1.13,2013-10-09 20:55:00,
2013-10-09 17:00:00,77.9,38.2,30.13,North,353,1.0,3.0,24,0.00,,,0.00,Wunderground v.1.13,2013-10-09 21:00:00,
2013-10-09 17:05:00,78.1,38.4,30.13,WNW,298,1.0,1.0,24,0.00,,,0.00,Wunderground v.1.13,2013-10-09 21:05:00,
2013-10-09 17:10:00,77.7,38.0,30.13,NW,326,1.0,6.0,24,0.00,,,0.00,Wunderground v.1.13,2013-10-09 21:10:00,
2013-10-09 17:15:00,77.0,38.5,30.13,NNW,344,1.0,1.0,25,0.00,,,0.00,Wunderground v.1.13,2013-10-09 21:15:00,
2013-10-09 17:20:00,76.7,39.2,30.13,ESE,119,1.0,3.0,26,0.00,,,0.00,Wunderground v.1.13,2013-10-09 21:20:00,
2013-10-09 17:25:00,76.8,39.3,30.13,NNE,27,1.0,3.0,26,0.00,,,0.00,Wunderground v.1.13,2013-10-09 21:25:00,
2013-10-09 17:30:00,77.0,40.4,30.13,WSW,257,0.0,3.0,27,0.00,,,0.00,Wunderground v.1.13,2013-10-09 21:30:00,
2013-10-09 17:35:00,76.8,41.2,30.13,West,260,0.0,3.0,28,0.00,,,0.00,Wunderground v.1.13,2013-10-09 21:35:00,
2013-10-09 17:40:00,76.8,41.2,30.13,WSW,240,0.0,3.0,28,0.00,,,0.00,Wunderground v.1.13,2013-10-09 21:40:00,
2013-10-09 17:50:00,76.7,40.2,30.13,NW,315,1.0,7.0,27,0.00,,,0.00,Wunderground v.1.13,2013-10-09 21:50:00,
2013-10-09 17:55:00,76.7,40.2,30.13,NW,315,1.0,7.0,27,0.00,,,0.00,Wunderground v.1.13,2013-10-09 21:55:00,
2013-10-09 18:15:00,76.0,41.4,30.13,WSW,257,0.0,0.0,29,0.00,,,0.00,Wunderground v.1.13,2013-10-09 22:15:00,
2013-10-09 18:20:00,75.8,40.4,30.14,NW,320,0.0,0.0,28,0.00,,,0.00,Wunderground v.1.13,2013-10-09 22:20:00,
2013-10-09 18:25:00,75.6,39.2,30.14,NW,315,0.0,0.0,27,0.00,,,0.00,Wunderground v.1.13,2013-10-09 22:25:00,
2013-10-09 18:30:00,75.8,39.4,30.14,NNW,344,0.0,1.0,27,0.00,,,0.00,Wunderground v.1.13,2013-10-09 22:30:00,
2013-10-09 18:35:00,75.6,39.2,30.14,NW,312,0.0,1.0,27,0.00,,,0.00,Wunderground v.1.13,2013-10-09 22:35:00,
2013-10-09 18:45:00,74.2,39.0,30.14,NNW,332,1.0,1.0,28,0.00,,,0.00,Wunderground v.1.13,2013-10-09 22:45:00,
2013-10-09 18:50:00,73.9,38.7,30.14,NNW,329,1.0,1.0,28,0.00,,,0.00,Wunderground v.1.13,2013-10-09 22:50:00,
2013-10-09 18:55:00,73.5,39.3,30.14,NNW,336,1.0,1.0,29,0.00,,,0.00,Wunderground v.1.13,2013-10-09 22:55:00,
2013-10-09 19:00:00,73.3,40.0,30.14,NNW,333,0.0,0.0,30,0.00,,,0.00,Wunderground v.1.13,2013-10-09 23:00:00,
2013-10-09 19:05:00,73.2,40.7,30.14,NNW,333,0.0,7.0,31,0.00,,,0.00,Wunderground v.1.13,2013-10-09 23:05:00,
2013-10-09 19:10:00,72.8,41.2,30.14,NNW,333,0.0,7.0,32,0.00,,,0.00,Wunderground v.1.13,2013-10-09 23:10:00,
2013-10-09 19:20:00,71.8,41.9,30.14,NNW,333,0.0,7.0,34,0.00,,,0.00,Wunderground v.1.13,2013-10-09 23:20:00,
2013-10-09 19:25:00,71.1,41.3,30.14,NNW,333,1.0,1.0,34,0.00,,,0.00,Wunderground v.1.13,2013-10-09 23:25:00,
2013-10-09 19:30:00,70.8,43.2,30.14,NNW,333,0.0,7.0,37,0.00,,,0.00,Wunderground v.1.13,2013-10-09 23:30:00,
2013-10-09 19:35:00,70.3,43.5,30.14,NNW,333,0.0,7.0,38,0.00,,,0.00,Wunderground v.1.13,2013-10-09 23:35:00,
2013-10-09 19:40:00,69.6,44.8,30.14,NNW,333,0.0,7.0,41,0.00,,,0.00,Wunderground v.1.13,2013-10-09 23:40:00,
2013-10-09 19:50:00,68.6,43.9,30.14,NNW,333,0.0,7.0,41,0.00,,,0.00,Wunderground v.1.13,2013-10-09 23:50:00,
2013-10-09 19:55:00,68.3,44.3,30.14,NNW,333,0.0,7.0,42,0.00,,,0.00,Wunderground v.1.13,2013-10-09 23:55:00,
2013-10-09 20:00:00,67.8,44.5,30.14,NNW,333,0.0,7.0,43,0.00,,,0.00,Wunderground v.1.13,2013-10-10 00:00:00,
2013-10-09 20:05:00,67.3,45.2,30.15,NNW,333,0.0,7.0,45,0.00,,,0.00,Wunderground v.1.13,2013-10-10 00:05:00,
2013-10-09 20:10:00,67.1,45.6,30.15,NNW,333,0.0,7.0,46,0.00,,,0.00,Wunderground v.1.13,2013-10-10 00:10:00,
2013-10-09 20:15:00,66.9,46.6,30.15,NNW,333,0.0,7.0,48,0.00,,,0.00,Wunderground v.1.13,2013-10-10 00:15:00,
2013-10-09 20:20:00,66.9,47.6,30.15,NNW,333,0.0,7.0,50,0.00,,,0.00,Wunderground v.1.13,2013-10-10 00:20:00,
2013-10-09 20:25:00,66.8,47.6,30.15,NNW,333,0.0,7.0,50,0.00,,,0.00,Wunderground v.1.13,2013-10-10 00:25:00,
2013-10-09 20:30:00,66.6,47.4,30.15,NNW,333,0.0,7.0,50,0.00,,,0.00,Wunderground v.1.13,2013-10-10 00:30:00,
2013-10-09 20:35:00,66.3,47.6,30.15,NNW,333,0.0,7.0,51,0.00,,,0.00,Wunderground v.1.13,2013-10-10 00:35:00,
2013-10-09 20:40:00,65.8,48.2,30.15,NNW,333,0.0,7.0,53,0.00,,,0.00,Wunderground v.1.13,2013-10-10 00:40:00,
2013-10-09 20:45:00,65.3,48.2,30.15,NNW,333,0.0,7.0,54,0.00,,,0.00,Wunderground v.1.13,2013-10-10 00:45:00,
2013-10-09 20:55:00,64.3,48.3,30.15,NNW,333,0.0,7.0,56,0.00,,,0.00,Wunderground v.1.13,2013-10-10 00:55:00,
2013-10-09 21:00:00,64.0,48.5,30.15,NNW,333,0.0,7.0,57,0.00,,,0.00,Wunderground v.1.13,2013-10-10 01:00:00,
2013-10-09 21:05:00,63.7,48.2,30.16,NNW,333,0.0,7.0,57,0.00,,,0.00,Wunderground v.1.13,2013-10-10 01:05:00,
2013-10-09 21:10:00,63.4,48.4,30.16,NNW,333,0.0,7.0,58,0.00,,,0.00,Wunderground v.1.13,2013-10-10 01:10:00,
2013-10-09 21:15:00,63.2,48.2,30.16,NNW,333,0.0,7.0,58,0.00,,,0.00,Wunderground v.1.13,2013-10-10 01:15:00,
2013-10-09 21:25:00,62.9,48.3,30.15,NNW,333,0.0,7.0,59,0.00,,,0.00,Wunderground v.1.13,2013-10-10 01:25:00,
2013-10-09 21:30:00,62.7,48.2,30.15,NNW,333,0.0,7.0,59,0.00,,,0.00,Wunderground v.1.13,2013-10-10 01:30:00,
2013-10-09 21:35:00,62.3,48.2,30.16,NNW,333,0.0,7.0,60,0.00,,,0.00,Wunderground v.1.13,2013-10-10 01:35:00,
2013-10-09 21:40:00,62.0,48.4,30.16,NNW,333,0.0,7.0,61,0.00,,,0.00,Wunderground v.1.13,2013-10-10 01:40:00,
2013-10-09 21:45:00,61.5,48.4,30.16,NNW,333,0.0,7.0,62,0.00,,,0.00,Wunderground v.1.13,2013-10-10 01:45:00,
2013-10-09 21:50:00,61.3,48.2,30.16,NNW,333,0.0,7.0,62,0.00,,,0.00,Wunderground v.1.13,2013-10-10 01:50:00,
2013-10-09 22:00:00,61.0,48.3,30.16,NNW,333,0.0,7.0,63,0.00,,,0.00,Wunderground v.1.13,2013-10-10 02:00:00,
2013-10-09 22:05:00,60.7,48.4,30.16,NNW,333,0.0,7.0,64,0.00,,,0.00,Wunderground v.1.13,2013-10-10 02:05:00,
2013-10-09 22:10:00,60.5,48.7,30.16,NNW,333,0.0,7.0,65,0.00,,,0.00,Wunderground v.1.13,2013-10-10 02:10:00,
2013-10-09 22:15:00,60.2,50.0,30.16,NNW,333,0.0,7.0,69,0.00,,,0.00,Wunderground v.1.13,2013-10-10 02:15:00,
2013-10-09 22:20:00,60.1,50.7,30.15,NNW,333,0.0,7.0,71,0.00,,,0.00,Wunderground v.1.13,2013-10-10 02:20:00,
2013-10-09 22:30:00,59.3,48.7,30.15,NNW,333,0.0,7.0,68,0.00,,,0.00,Wunderground v.1.13,2013-10-10 02:30:00,
2013-10-09 22:35:00,58.9,48.7,30.16,NNW,333,0.0,7.0,69,0.00,,,0.00,Wunderground v.1.13,2013-10-10 02:35:00,
2013-10-09 22:40:00,58.3,48.6,30.16,NNW,333,0.0,7.0,70,0.00,,,0.00,Wunderground v.1.13,2013-10-10 02:40:00,
2013-10-09 22:45:00,57.8,48.8,30.16,NNW,333,0.0,7.0,72,0.00,,,0.00,Wunderground v.1.13,2013-10-10 02:45:00,
2013-10-09 22:50:00,57.5,48.9,30.16,NNW,333,0.0,7.0,73,0.00,,,0.00,Wunderground v.1.13,2013-10-10 02:50:00,
2013-10-09 22:55:00,57.3,48.7,30.16,NNW,333,1.0,1.0,73,0.00,,,0.00,Wunderground v.1.13,2013-10-10 02:55:00,
2013-10-09 23:05:00,56.9,49.1,30.16,NNW,333,0.0,7.0,75,0.00,,,0.00,Wunderground v.1.13,2013-10-10 03:05:00,
2013-10-09 23:10:00,56.7,48.9,30.16,NNW,333,0.0,7.0,75,0.00,,,0.00,Wunderground v.1.13,2013-10-10 03:10:00,
2013-10-09 23:15:00,56.5,49.0,30.16,NNW,333,0.0,7.0,76,0.00,,,0.00,Wunderground v.1.13,2013-10-10 03:15:00,
2013-10-09 23:20:00,56.3,48.8,30.16,NNW,333,1.0,1.0,76,0.00,,,0.00,Wunderground v.1.13,2013-10-10 03:20:00,
2013-10-09 23:25:00,56.2,49.1,30.16,NNW,333,1.0,1.0,77,0.00,,,0.00,Wunderground v.1.13,2013-10-10 03:25:00,
2013-10-09 23:35:00,55.9,49.1,30.16,NNW,333,0.0,7.0,78,0.00,,,0.00,Wunderground v.1.13,2013-10-10 03:35:00,
2013-10-09 23:40:00,55.7,48.9,30.16,NNW,333,0.0,7.0,78,0.00,,,0.00,Wunderground v.1.13,2013-10-10 03:40:00,
2013-10-09 23:45:00,55.6,48.8,30.16,NNW,333,0.0,7.0,78,0.00,,,0.00,Wunderground v.1.13,2013-10-10 03:45:00,
2013-10-09 23:50:00,55.6,49.2,30.16,NNW,333,0.0,7.0,79,0.00,,,0.00,Wunderground v.1.13,2013-10-10 03:50:00,
2013-10-09 23:55:00,55.4,49.0,30.16,NNW,337,0.0,7.0,79,0.00,,,0.00,Wunderground v.1.13,2013-10-10 03:55:00,